Regional Weather Roundup
Issued by NWS Boston, MA

Home | Current Version | Previous Version | Text Only | Print | Product List | Glossary On
Versions: 1 2 3 4 5 6 7 8 9 10 11 12 13 14 15 16 17 18 19 20 21 22 23 24 25 26 27 28 29 30 31 32 33 34 35 36 37 38 39 40 41 42 43 44 45 46 47 48 49 50
505
ASUS41 KBOX 091610
RWRBOX

REGIONAL WEATHER ROUNDUP
NATIONAL WEATHER SERVICE TAUNTON MA
1100 AM EST TUE FEB 09 2016

NOTE:  "FAIR" INDICATES FEW OR NO CLOUDS BELOW 12,000 FEET WITH NO
SIGNIFICANT WEATHER AND/OR OBSTRUCTIONS TO VISIBILITY.  THE FOLLOWING
OBSERVATION LOCATIONS DO NOT REPORT PRESENT WEATHER...PROVINCETOWN...
SMITHFIELD...BLOCK ISLAND...KEENE...AND OXFORD.

MAZALL-091700-
EASTERN MASSACHUSETTS

CITY           SKY/WX    TMP DP  RH WIND       PRES   REMARKS
BOSTON         CLOUDY    24  17  74 N8        29.68F WCI  15
BEVERLY        CLOUDY    23  15  71 NW9       29.68F WCI  13
LAWRENCE       CLOUDY    23  15  71 N7        29.71F WCI  15
BEDFORD        CLOUDY   N/A N/A N/A N9          N/A
BLUE HILL        N/A     22  17  81 N7        29.62F WCI  13
NORWOOD        CLOUDY    25  17  72 N7        29.67F WCI  17
MARSHFIELD     CLOUDY    28  25  86 N12       29.67F WCI  18
PLYMOUTH       CLOUDY    28  23  81 N9        29.64F WCI  19
TAUNTON        CLOUDY    29  20  69 N7        29.65F WCI  22
NEW BEDFORD    CLOUDY    28  22  78 N8        29.64F WCI  20
$$

MAZALL-091700-
CAPE COD AND THE ISLANDS

CITY           SKY/WX    TMP DP  RH WIND       PRES   REMARKS
FALMOUTH       CLOUDY    30  25  80 N8        29.63F WCI  23
HYANNIS        CLOUDY    32  27  81 NW9G18    29.61F WCI  24
CHATHAM        CLOUDY    32  26  78 VRB5      29.63F WCI  27
PROVINCETOWN   CLOUDY    34  25  69 N6        29.64F WCI  29
NANTUCKET      CLOUDY    35  29  78 N10       29.62F WCI  27
MARTHAS VNYRD  CLOUDY    31  26  82 N9        29.62F WCI  23
$$

MAZALL-091700-
CENTRAL AND WESTERN MASSACHUSETTS

CITY           SKY/WX    TMP DP  RH WIND       PRES   REMARKS
WORCESTER      CLOUDY    21  14  74 N7        29.61F WCI  12
FITCHBURG      CLOUDY    23  14  68 N7        29.68F WCI  15
ORANGE         CLOUDY    23  15  71 N5        29.66F WCI  17
SPRINGFIELD    CLOUDY    24  16  74 VRB7      29.66F WCI  15
WESTFIELD      CLOUDY    24  16  71 N5        29.66F WCI  18
NORTH ADAMS    CLOUDY    24  15  68 VRB5      29.64F WCI  18
PITTSFIELD     CLOUDY    23  14  68 MISG      29.59F
$$

RIZALL-091700-
RHODE ISLAND

CITY           SKY/WX    TMP DP  RH WIND       PRES   REMARKS
PROVIDENCE     CLOUDY    25  19  78 N10       29.66F WCI  15
NEWPORT        CLOUDY    25  20  81 N8        29.63F WCI  16
BLOCK ISLAND   CLOUDY    28  27  93 NE9       29.61F WCI  20
SMITHFIELD     PTSUNNY   23  18  80 N12       29.62F WCI  12
WESTERLY       CLOUDY    29  21  72 N8        29.64F WCI  21
$$

CTZALL-091700-
CONNECTICUT

CITY           SKY/WX    TMP DP  RH WIND       PRES   REMARKS
BRADLEY INTL   FLURRIES  24  17  74 N10       29.65F WCI  14
HARTFORD       FLURRIES  25  17  72 N9        29.67F WCI  15
BRIDGEPORT     SUNNY     29  20  69 N9        29.65F WCI  20
DANBURY        SUNNY     26  17  68 VRB3      29.62F
GROTON         CLOUDY    28  21  75 N8        29.63F WCI  20
NEW HAVEN      MOSUNNY   26  21  81 N9        29.64F WCI  17
CHESTER        CLOUDY    27  21  80 NE5       29.63F WCI  21
MERIDEN        CLOUDY    26  18  71 N8        29.66F WCI  18
WILLIMANTIC    CLOUDY    28  18  66 N7        29.65F WCI  21
OXFORD         MOSUNNY   23  10  58 N9        29.61F WCI  13
$$

MEZ002-015-021-024-NHZ003-005-008-011-012-014-VTZ005-008-091700-
NORTHERN NEW ENGLAND

CITY           SKY/WX    TMP DP  RH WIND       PRES   REMARKS
PORTLAND ME    PTSUNNY   22  15  75 N6        29.72F WCI  14
BANGOR ME      CLOUDY    19  13  77 N8        29.71S WCI   9
CONCORD NH     LGT SNOW  24  14  65 NW3       29.70F
MANCHESTER NH  FLURRIES  24  15  68 N6        29.68F WCI  17
NASHUA NH      CLOUDY    27  16  63 N6        29.70F WCI  20
PORTSMOUTH NH  PTSUNNY   23  14  67 N8        29.69F WCI  14
JAFFREY NH     PTSUNNY   20  13  74 CALM      29.63F
KEENE NH       MOSUNNY   21  12  68 N3        29.68F
BURLINGTON VT  FLURRIES  25  17  72 VRB6      29.67S WCI  18
MT. WASHINGTON SNOWSHWR   9   5  85 SW9         N/A  VSB 1   WCI  -5
$$

NYZ052-076-091700-
EASTERN NEW YORK

CITY           SKY/WX    TMP DP  RH WIND       PRES   REMARKS
ALBANY         FLURRIES  25  18  74 SE9       29.67F WCI  15
NEW YORK CITY  PTSUNNY   30  23  75 NE12      29.63F WCI  20
$$

ANZALL-091700-
MARINE OBSERVATIONS

STATION/POSITION TIME  TEMP    WIND        PRES    VSBY  WAVE
                       AIR SEA DIR/SP/G                  HT/PER
                 (UTC) (F)     (DEG/KT/KT) (MB)    (MI)  (FT/S)
BOSTON BUOY      1550   28 41  350/ 17/ 21 1004.0F        12/12
BUZZARDS BAY     1600           10/ 11/ 13 1003.8F
NANTUCKET SOUND  1550   33 41  360/ 12/ 14 1002.8F         2/13
MASS BAY-STELLWA 1504   29 43  350/ 14/ 19   N/A    1 3/4 10/14
ISLE OF SHOALS   1600   23     350/ 12/ 13 1004.9F
S OF BLOCK IS    NOT AVBL
$$

......................KEY.........................
  SKY/WX - SKY CONDITION/PRESENT WEATHER
  TMP    - TEMPERATURE IN FAHRENHEIT
  DWPT   - DEWPOINT IN FAHRENHEIT
  RH     - RELATIVE HUMIDITY IN PERCENT
  WIND   - DIRECTION AND SPEED IN MPH
  PRES   - MEAN SEA LEVEL PRESSURE IN INCHES OF HG
  WCI    - WIND CHILL INDEX
  VSB    - VISIBILITY IN MILES
  HX     - HEAT INDEX
  TC     - TEMPERATURE IN CELSIUS
  VRB    - VARIABLE WIND DIRECTION
  N/A    - NOT AVAILABLE




USA.gov is the U.S. government's official web portal to all federal, state and local government web resources and services.